This is the latest recevied weather packets stored in our database for station/object PU5BHV. If no packets are shown the sender has not sent any weather packets the latest 10 day(s).
| Time | Temp. | Humidity | Pressure | Rain* | Wind** | Luminosity | Snow |
|---|---|---|---|---|---|---|---|
| 1777806235 | 16.67° C | 99% | 1022.3 hPa | 0 mm | - | 47 W/m² | - |
| 1777805932 | 16.67° C | 99% | 1022.4 hPa | 0 mm | - | 37 W/m² | - |
| 1777805629 | 16.67° C | 99% | 1022.2 hPa | 0 mm | - | 41 W/m² | - |
| 1777805321 | 16.67° C | 99% | 1022.1 hPa | 0 mm | - | 35 W/m² | - |
| 1777805019 | 16.67° C | 99% | 1022 hPa | 0 mm | - | 30 W/m² | - |
| 1777804716 | 16.67° C | 99% | 1022.1 hPa | 0 mm | - | 24 W/m² | - |
| 1777804414 | 16.67° C | 99% | 1022.2 hPa | 0 mm | - | 21 W/m² | - |
| 1777804111 | 16.67° C | 99% | 1022 hPa | 0 mm | - | 22 W/m² | - |
| 1777803807 | 16.11° C | 99% | 1021.9 hPa | 0 mm | - | 19 W/m² | - |
| 1777803502 | 16.11° C | 99% | 1021.8 hPa | 0 mm | - | 17 W/m² | - |
| 1777803201 | 16.11° C | 99% | 1021.7 hPa | 0 mm | - | 13 W/m² | - |
| 1777802897 | 16.11° C | 99% | 1021.8 hPa | 0 mm | - | 10 W/m² | - |
| 1777802595 | 16.11° C | 99% | 1021.6 hPa | 0 mm | - | 6 W/m² | - |
| 1777802292 | 16.11° C | 99% | 1021.6 hPa | 0 mm | - | 4 W/m² | - |
| 1777801991 | 16.11° C | 99% | 1021.5 hPa | 0 mm | - | 3 W/m² | - |
| 1777801688 | 16.11° C | 99% | 1021.5 hPa | 0 mm | - | 2 W/m² | - |
| 1777801385 | 16.11° C | 99% | 1021.6 hPa | 0 mm | - | 0 W/m² | - |
| 1777801081 | 16.11° C | 99% | 1021.3 hPa | 0 mm | - | 0 W/m² | - |
| 1777800778 | 16.11° C | 99% | 1021.3 hPa | 0 mm | - | 0 W/m² | - |
| 1777800474 | 15.56° C | 99% | 1021.1 hPa | 0 mm | - | 0 W/m² | - |
| 1777800171 | 15.56° C | 99% | 1021.2 hPa | 0 mm | - | 0 W/m² | - |
| 1777799870 | 15.56° C | 99% | 1020.9 hPa | 0 mm | - | 0 W/m² | - |
| 1777799568 | 15.56° C | 99% | 1021.3 hPa | 0 mm | - | 0 W/m² | - |
| 1777799264 | 15.56° C | 99% | 1021 hPa | 0 mm | - | 0 W/m² | - |
| 1777798961 | 15.56° C | 99% | 1020.8 hPa | 0 mm | - | 0 W/m² | - |
* Rain latest hour (hover to see other rain measurements)
** Current wind speed in m/s (hover to see current wind gust speed)